Time,TemperatureF,DewpointF,PressureIn,WindDirection,WindDirectionDegrees,WindSpeedMPH,WindSpeedGustMPH,Humidity,HourlyPrecipIn,Conditions,Clouds,dailyrainin,SoftwareType,DateUTC
2013-02-26 00:02:00,24.8,12.9,30.11,WSW,243,1.0,35.0,60,0.00,,,0.00,Wunderground v.1.15,2013-02-26 07:02:00,
2013-02-26 00:08:00,26.1,12.5,30.11,WSW,243,1.0,35.0,56,0.00,,,0.00,Wunderground v.1.15,2013-02-26 07:08:00,
2013-02-26 00:14:00,25.6,12.5,30.11,WSW,246,1.0,35.0,57,0.00,,,0.00,Wunderground v.1.15,2013-02-26 07:14:00,
2013-02-26 00:20:00,24.7,12.0,30.10,WSW,246,2.0,35.0,58,0.00,,,0.00,Wunderground v.1.15,2013-02-26 07:20:00,
2013-02-26 00:26:00,24.6,11.9,30.10,WSW,246,2.0,35.0,58,0.00,,,0.00,Wunderground v.1.15,2013-02-26 07:26:00,
2013-02-26 00:32:00,26.1,11.3,30.11,WSW,240,3.0,35.0,53,0.00,,,0.00,Wunderground v.1.15,2013-02-26 07:32:00,
2013-02-26 00:38:00,28.1,10.9,30.11,WSW,240,3.0,35.0,48,0.00,,,0.00,Wunderground v.1.15,2013-02-26 07:38:00,
2013-02-26 00:44:00,29.0,10.8,30.11,WSW,240,1.0,35.0,46,0.00,,,0.00,Wunderground v.1.15,2013-02-26 07:44:00,
2013-02-26 00:50:00,27.1,10.9,30.11,WSW,240,1.0,35.0,50,0.00,,,0.00,Wunderground v.1.15,2013-02-26 07:50:00,
2013-02-26 00:56:00,25.3,11.4,30.11,WSW,240,1.0,35.0,55,0.00,,,0.00,Wunderground v.1.15,2013-02-26 07:56:00,
2013-02-26 01:02:00,24.5,11.0,30.11,WSW,240,1.0,35.0,56,0.00,,,0.00,Wunderground v.1.15,2013-02-26 08:02:00,
2013-02-26 01:08:00,24.1,11.0,30.11,WSW,240,1.0,35.0,57,0.00,,,0.00,Wunderground v.1.15,2013-02-26 08:08:00,
2013-02-26 01:14:00,23.8,11.2,30.12,WSW,240,0.0,35.0,58,0.00,,,0.00,Wunderground v.1.15,2013-02-26 08:14:00,
2013-02-26 01:20:00,24.0,11.3,30.12,WSW,240,0.0,35.0,58,0.00,,,0.00,Wunderground v.1.15,2013-02-26 08:20:00,
2013-02-26 01:26:00,23.9,11.3,30.12,WSW,240,0.0,35.0,58,0.00,,,0.00,Wunderground v.1.15,2013-02-26 08:26:00,
2013-02-26 01:32:00,23.9,12.0,30.12,WSW,240,1.0,35.0,60,0.00,,,0.00,Wunderground v.1.15,2013-02-26 08:32:00,
2013-02-26 01:38:00,23.8,11.9,30.11,WSW,240,1.0,35.0,60,0.00,,,0.00,Wunderground v.1.15,2013-02-26 08:38:00,
2013-02-26 01:44:00,23.7,12.2,30.12,WSW,240,0.0,35.0,61,0.00,,,0.00,Wunderground v.1.15,2013-02-26 08:44:00,
2013-02-26 01:50:00,24.3,12.4,30.12,WSW,240,1.0,35.0,60,0.00,,,0.00,Wunderground v.1.15,2013-02-26 08:50:00,
2013-02-26 01:56:00,25.1,12.4,30.12,WSW,240,1.0,35.0,58,0.00,,,0.00,Wunderground v.1.15,2013-02-26 08:56:00,
2013-02-26 02:02:00,25.2,12.1,30.12,WSW,240,2.0,35.0,57,0.00,,,0.00,Wunderground v.1.15,2013-02-26 09:02:00,
2013-02-26 02:08:00,24.9,12.2,30.12,WSW,240,3.0,35.0,58,0.00,,,0.00,Wunderground v.1.15,2013-02-26 09:08:00,
2013-02-26 02:14:00,25.9,12.3,30.11,WSW,240,2.0,35.0,56,0.00,,,0.00,Wunderground v.1.15,2013-02-26 09:14:00,
2013-02-26 02:20:00,27.1,12.2,30.12,WSW,240,2.0,2.0,53,0.00,,,0.00,Wunderground v.1.15,2013-02-26 09:20:00,
2013-02-26 02:26:00,27.2,11.9,30.12,WSW,240,1.0,35.0,52,0.00,,,0.00,Wunderground v.1.15,2013-02-26 09:26:00,
2013-02-26 02:32:00,27.4,12.1,30.12,WSW,240,1.0,35.0,52,0.00,,,0.00,Wunderground v.1.15,2013-02-26 09:32:00,
2013-02-26 02:38:00,27.9,12.5,30.12,WSW,240,2.0,35.0,52,0.00,,,0.00,Wunderground v.1.15,2013-02-26 09:38:00,
2013-02-26 02:44:00,27.1,11.8,30.12,WSW,240,2.0,35.0,52,0.00,,,0.00,Wunderground v.1.15,2013-02-26 09:44:00,
2013-02-26 02:50:00,26.3,11.5,30.12,WSW,240,2.0,35.0,53,0.00,,,0.00,Wunderground v.1.15,2013-02-26 09:50:00,
2013-02-26 02:56:00,26.1,12.5,30.12,WSW,254,2.0,35.0,56,0.00,,,0.00,Wunderground v.1.15,2013-02-26 09:56:00,
2013-02-26 03:02:00,26.0,12.4,30.12,WSW,254,2.0,35.0,56,0.00,,,0.00,Wunderground v.1.15,2013-02-26 10:02:00,
2013-02-26 03:08:00,25.7,12.9,30.12,WSW,254,1.0,35.0,58,0.00,,,0.00,Wunderground v.1.15,2013-02-26 10:08:00,
2013-02-26 03:14:00,25.4,13.1,30.12,WSW,256,2.0,35.0,59,0.00,,,0.00,Wunderground v.1.15,2013-02-26 10:14:00,
2013-02-26 03:20:00,25.2,13.2,30.12,WSW,256,2.0,35.0,60,0.00,,,0.00,Wunderground v.1.15,2013-02-26 10:20:00,
2013-02-26 03:26:00,25.1,13.5,30.12,WSW,256,2.0,35.0,61,0.00,,,0.00,Wunderground v.1.15,2013-02-26 10:26:00,
2013-02-26 03:32:00,24.6,13.1,30.12,WSW,256,2.0,35.0,61,0.00,,,0.00,Wunderground v.1.15,2013-02-26 10:32:00,
2013-02-26 03:38:00,24.4,13.2,30.13,WSW,256,3.0,35.0,62,0.00,,,0.00,Wunderground v.1.15,2013-02-26 10:38:00,
2013-02-26 03:44:00,24.2,13.0,30.12,WSW,251,2.0,35.0,62,0.00,,,0.00,Wunderground v.1.15,2013-02-26 10:44:00,
2013-02-26 03:50:00,24.0,13.2,30.13,WSW,251,2.0,2.0,63,0.00,,,0.00,Wunderground v.1.15,2013-02-26 10:50:00,
2013-02-26 03:56:00,23.6,12.8,30.13,WSW,251,1.0,35.0,63,0.00,,,0.00,Wunderground v.1.15,2013-02-26 10:56:00,
2013-02-26 04:02:00,23.5,13.1,30.13,WSW,251,2.0,35.0,64,0.00,,,0.00,Wunderground v.1.15,2013-02-26 11:02:00,
2013-02-26 04:08:00,23.3,13.3,30.13,WSW,251,2.0,35.0,65,0.00,,,0.00,Wunderground v.1.15,2013-02-26 11:08:00,
2013-02-26 04:14:00,23.7,14.0,30.13,WSW,254,3.0,35.0,66,0.00,,,0.00,Wunderground v.1.15,2013-02-26 11:14:00,
2013-02-26 04:20:00,23.9,13.8,30.13,WSW,251,3.0,35.0,65,0.00,,,0.00,Wunderground v.1.15,2013-02-26 11:20:00,
2013-02-26 04:26:00,23.7,14.0,30.13,WSW,248,3.0,35.0,66,0.00,,,0.00,Wunderground v.1.15,2013-02-26 11:26:00,
2013-02-26 04:32:00,23.8,14.1,30.13,WSW,247,3.0,35.0,66,0.00,,,0.00,Wunderground v.1.15,2013-02-26 11:32:00,
2013-02-26 04:38:00,24.0,13.9,30.13,WSW,247,2.0,35.0,65,0.00,,,0.00,Wunderground v.1.15,2013-02-26 11:38:00,
2013-02-26 04:44:00,23.9,13.8,30.13,WSW,247,2.0,35.0,65,0.00,,,0.00,Wunderground v.1.15,2013-02-26 11:44:00,
2013-02-26 04:50:00,24.4,14.7,30.13,WSW,247,2.0,35.0,66,0.00,,,0.00,Wunderground v.1.15,2013-02-26 11:50:00,
2013-02-26 04:56:00,24.8,14.3,30.13,WSW,247,2.0,35.0,64,0.00,,,0.00,Wunderground v.1.15,2013-02-26 11:56:00,
2013-02-26 05:02:00,25.2,14.7,30.14,WSW,247,1.0,35.0,64,0.00,,,0.00,Wunderground v.1.15,2013-02-26 12:02:00,
2013-02-26 05:08:00,25.7,15.2,30.14,WSW,247,1.0,35.0,64,0.00,,,0.00,Wunderground v.1.15,2013-02-26 12:08:00,
2013-02-26 05:14:00,26.0,15.1,30.14,WSW,247,1.0,35.0,63,0.00,,,0.00,Wunderground v.1.15,2013-02-26 12:14:00,
2013-02-26 05:20:00,26.1,15.2,30.14,WSW,247,0.0,35.0,63,0.00,,,0.00,Wunderground v.1.15,2013-02-26 12:20:00,
2013-02-26 05:26:00,26.2,15.3,30.14,WSW,247,0.0,35.0,63,0.00,,,0.00,Wunderground v.1.15,2013-02-26 12:26:00,
2013-02-26 05:32:00,26.2,14.9,30.14,WSW,247,0.0,35.0,62,0.00,,,0.00,Wunderground v.1.15,2013-02-26 12:32:00,
2013-02-26 05:38:00,26.0,15.1,30.14,WSW,247,0.0,35.0,63,0.00,,,0.00,Wunderground v.1.15,2013-02-26 12:38:00,
2013-02-26 05:44:00,25.9,15.0,30.15,WSW,247,0.0,35.0,63,0.00,,,0.00,Wunderground v.1.15,2013-02-26 12:44:00,
2013-02-26 05:50:00,26.0,15.1,30.15,WSW,247,0.0,35.0,63,0.00,,,0.00,Wunderground v.1.15,2013-02-26 12:50:00,
2013-02-26 05:56:00,26.0,15.1,30.15,WSW,247,1.0,35.0,63,0.00,,,0.00,Wunderground v.1.15,2013-02-26 12:56:00,
2013-02-26 06:02:00,25.4,14.9,30.15,WSW,247,1.0,35.0,64,0.00,,,0.00,Wunderground v.1.15,2013-02-26 13:02:00,
2013-02-26 06:08:00,25.2,14.7,30.15,WSW,247,1.0,35.0,64,0.00,,,0.00,Wunderground v.1.15,2013-02-26 13:08:00,
2013-02-26 06:14:00,25.2,15.4,30.15,WSW,247,0.0,35.0,66,0.00,,,0.00,Wunderground v.1.15,2013-02-26 13:14:00,
2013-02-26 06:20:00,25.6,15.5,30.15,WSW,247,0.0,35.0,65,0.00,,,0.00,Wunderground v.1.15,2013-02-26 13:20:00,
2013-02-26 06:26:00,24.8,14.0,30.15,WSW,247,0.0,35.0,63,0.00,,,0.00,Wunderground v.1.15,2013-02-26 13:26:00,
2013-02-26 06:32:00,22.7,12.7,30.14,WSW,247,0.0,35.0,65,0.00,,,0.00,Wunderground v.1.15,2013-02-26 13:32:00,
2013-02-26 06:38:00,20.7,11.8,30.14,WSW,247,1.0,35.0,68,0.00,,,0.00,Wunderground v.1.15,2013-02-26 13:38:00,
2013-02-26 06:44:00,19.2,11.3,30.14,WSW,249,2.0,35.0,71,0.00,,,0.00,Wunderground v.1.15,2013-02-26 13:44:00,
2013-02-26 06:50:00,18.8,11.6,30.14,WSW,249,2.0,35.0,73,0.00,,,0.00,Wunderground v.1.15,2013-02-26 13:50:00,
2013-02-26 06:56:00,19.1,12.2,30.15,WSW,249,1.0,35.0,74,0.00,,,0.00,Wunderground v.1.15,2013-02-26 13:56:00,
2013-02-26 07:02:00,19.7,12.4,30.14,WSW,249,2.0,3.0,73,0.00,,,0.00,Wunderground v.1.15,2013-02-26 14:02:00,
2013-02-26 07:08:00,20.4,13.1,30.15,WSW,249,3.0,35.0,73,0.00,,,0.00,Wunderground v.1.15,2013-02-26 14:08:00,
2013-02-26 07:14:00,21.9,14.9,30.15,West,262,2.0,35.0,74,0.00,,,0.00,Wunderground v.1.15,2013-02-26 14:14:00,
2013-02-26 07:20:00,23.5,16.1,30.15,West,268,2.0,35.0,73,0.00,,,0.00,Wunderground v.1.15,2013-02-26 14:20:00,
2013-02-26 07:26:00,25.0,17.9,30.15,WNW,301,2.0,35.0,74,0.00,,,0.00,Wunderground v.1.15,2013-02-26 14:26:00,
2013-02-26 07:32:00,26.5,19.0,30.15,WNW,295,3.0,5.0,73,0.00,,,0.00,Wunderground v.1.15,2013-02-26 14:32:00,
2013-02-26 07:38:00,27.6,20.1,30.14,WNW,303,5.0,35.0,73,0.00,,,0.00,Wunderground v.1.15,2013-02-26 14:38:00,
2013-02-26 07:44:00,28.8,21.9,30.14,WNW,301,6.0,35.0,75,0.00,,,0.00,Wunderground v.1.15,2013-02-26 14:44:00,
2013-02-26 07:50:00,32.7,25.6,30.14,NW,307,11.0,35.0,75,0.00,,,0.00,Wunderground v.1.15,2013-02-26 14:50:00,
2013-02-26 07:56:00,34.4,25.6,30.14,NW,317,16.0,35.0,70,0.00,,,0.00,Wunderground v.1.15,2013-02-26 14:56:00,
2013-02-26 08:02:00,35.0,25.5,30.14,NW,315,17.0,35.0,68,0.00,,,0.00,Wunderground v.1.15,2013-02-26 15:02:00,
2013-02-26 08:08:00,35.3,25.4,30.15,NW,308,18.0,35.0,67,0.00,,,0.00,Wunderground v.1.15,2013-02-26 15:08:00,
2013-02-26 08:14:00,35.7,25.4,30.15,NW,318,19.0,35.0,66,0.00,,,0.00,Wunderground v.1.15,2013-02-26 15:14:00,
2013-02-26 08:20:00,36.0,25.7,30.15,NW,321,18.0,35.0,66,0.00,,,0.00,Wunderground v.1.15,2013-02-26 15:20:00,
2013-02-26 08:26:00,36.4,25.7,30.15,NW,326,18.0,35.0,65,0.00,,,0.00,Wunderground v.1.15,2013-02-26 15:26:00,
2013-02-26 08:32:00,36.5,25.5,30.15,NW,320,18.0,22.0,64,0.00,,,0.00,Wunderground v.1.15,2013-02-26 15:32:00,
2013-02-26 08:38:00,36.7,25.7,30.15,NW,326,20.0,35.0,64,0.00,,,0.00,Wunderground v.1.15,2013-02-26 15:38:00,
2013-02-26 08:44:00,37.1,25.3,30.15,NNW,340,18.0,35.0,62,0.00,,,0.00,Wunderground v.1.15,2013-02-26 15:44:00,
2013-02-26 08:50:00,37.1,24.9,30.16,NNW,328,19.0,35.0,61,0.00,,,0.00,Wunderground v.1.15,2013-02-26 15:50:00,
2013-02-26 08:56:00,37.3,25.5,30.16,NNW,339,19.0,35.0,62,0.00,,,0.00,Wunderground v.1.15,2013-02-26 15:56:00,
2013-02-26 09:02:00,37.4,25.2,30.16,NW,311,18.0,35.0,61,0.00,,,0.00,Wunderground v.1.15,2013-02-26 16:02:00,
2013-02-26 09:08:00,37.6,25.7,30.16,NW,310,19.0,35.0,62,0.00,,,0.00,Wunderground v.1.15,2013-02-26 16:08:00,
2013-02-26 09:14:00,38.0,25.7,30.16,NNW,336,18.0,35.0,61,0.00,,,0.00,Wunderground v.1.15,2013-02-26 16:14:00,
2013-02-26 09:20:00,37.9,25.6,30.16,NNW,328,17.0,35.0,61,0.00,,,0.00,Wunderground v.1.15,2013-02-26 16:20:00,
2013-02-26 09:26:00,38.0,25.7,30.17,NW,316,19.0,35.0,61,0.00,,,0.00,Wunderground v.1.15,2013-02-26 16:26:00,
2013-02-26 09:32:00,38.4,26.1,30.17,NNW,341,19.0,35.0,61,0.00,,,0.00,Wunderground v.1.15,2013-02-26 16:32:00,
2013-02-26 09:38:00,38.9,26.2,30.17,NNW,345,17.0,35.0,60,0.00,,,0.00,Wunderground v.1.15,2013-02-26 16:38:00,
2013-02-26 09:44:00,39.1,26.4,30.17,NNW,330,16.0,35.0,60,0.00,,,0.00,Wunderground v.1.15,2013-02-26 16:44:00,
2013-02-26 09:50:00,39.0,26.3,30.17,NNW,332,17.0,17.0,60,0.00,,,0.00,Wunderground v.1.15,2013-02-26 16:50:00,
2013-02-26 09:56:00,39.6,26.8,30.17,NNW,340,17.0,35.0,60,0.00,,,0.00,Wunderground v.1.15,2013-02-26 16:56:00,
2013-02-26 10:02:00,39.4,26.7,30.17,NW,320,17.0,35.0,60,0.00,,,0.00,Wunderground v.1.15,2013-02-26 17:02:00,
2013-02-26 10:08:00,39.8,26.6,30.17,NNW,332,18.0,35.0,59,0.00,,,0.00,Wunderground v.1.15,2013-02-26 17:08:00,
2013-02-26 10:14:00,40.1,26.9,30.17,NW,321,17.0,35.0,59,0.00,,,0.00,Wunderground v.1.15,2013-02-26 17:14:00,
2013-02-26 10:20:00,39.7,26.1,30.17,NW,306,17.0,17.0,58,0.00,,,0.00,Wunderground v.1.15,2013-02-26 17:20:00,
2013-02-26 10:26:00,40.5,26.4,30.17,NNW,331,17.0,35.0,57,0.00,,,0.00,Wunderground v.1.15,2013-02-26 17:26:00,
2013-02-26 10:32:00,40.9,26.4,30.18,North,4,17.0,17.0,56,0.00,,,0.00,Wunderground v.1.15,2013-02-26 17:32:00,
2013-02-26 10:38:00,41.3,26.8,30.17,NW,317,16.0,35.0,56,0.00,,,0.00,Wunderground v.1.15,2013-02-26 17:38:00,
2013-02-26 10:44:00,41.5,26.5,30.17,NW,320,17.0,35.0,55,0.00,,,0.00,Wunderground v.1.15,2013-02-26 17:44:00,
2013-02-26 10:50:00,41.4,26.9,30.18,North,354,18.0,35.0,56,0.00,,,0.00,Wunderground v.1.15,2013-02-26 17:50:00,
2013-02-26 10:56:00,41.7,26.3,30.17,NNW,347,17.0,35.0,54,0.00,,,0.00,Wunderground v.1.15,2013-02-26 17:56:00,
2013-02-26 11:02:00,41.8,25.9,30.18,North,359,17.0,35.0,53,0.00,,,0.00,Wunderground v.1.15,2013-02-26 18:02:00,
2013-02-26 11:08:00,41.6,25.3,30.18,North,354,18.0,35.0,52,0.00,,,0.00,Wunderground v.1.15,2013-02-26 18:08:00,
2013-02-26 11:14:00,41.7,25.4,30.18,NNW,345,17.0,35.0,52,0.00,,,0.00,Wunderground v.1.15,2013-02-26 18:14:00,
2013-02-26 11:20:00,42.3,25.4,30.18,North,354,16.0,35.0,51,0.00,,,0.00,Wunderground v.1.15,2013-02-26 18:20:00,
2013-02-26 11:26:00,43.3,25.9,30.18,North,354,15.0,35.0,50,0.00,,,0.00,Wunderground v.1.15,2013-02-26 18:26:00,
2013-02-26 11:32:00,43.4,25.0,30.18,North,4,16.0,16.0,48,0.00,,,0.00,Wunderground v.1.15,2013-02-26 18:32:00,
2013-02-26 11:38:00,43.5,25.1,30.19,NNW,334,16.0,35.0,48,0.00,,,0.00,Wunderground v.1.15,2013-02-26 18:38:00,
2013-02-26 11:44:00,44.0,25.5,30.18,North,354,15.0,35.0,48,0.00,,,0.00,Wunderground v.1.15,2013-02-26 18:44:00,
2013-02-26 11:50:00,43.1,27.6,30.18,NNW,339,16.0,35.0,54,0.00,,,0.00,Wunderground v.1.15,2013-02-26 18:50:00,
2013-02-26 11:56:00,42.2,27.6,30.19,NNW,342,16.0,35.0,56,0.00,,,0.00,Wunderground v.1.15,2013-02-26 18:56:00,
2013-02-26 12:02:00,41.8,28.5,30.18,NNW,332,15.0,35.0,59,0.00,,,0.00,Wunderground v.1.15,2013-02-26 19:02:00,
2013-02-26 12:08:00,41.5,28.6,30.18,NNW,330,16.0,35.0,60,0.00,,,0.00,Wunderground v.1.15,2013-02-26 19:08:00,
2013-02-26 12:14:00,41.6,29.5,30.18,NW,310,17.0,35.0,62,0.00,,,0.00,Wunderground v.1.15,2013-02-26 19:14:00,
2013-02-26 12:20:00,41.8,28.9,30.18,NNW,328,17.0,35.0,60,0.00,,,0.00,Wunderground v.1.15,2013-02-26 19:20:00,
2013-02-26 12:26:00,41.8,29.3,30.18,NW,319,18.0,35.0,61,0.00,,,0.00,Wunderground v.1.15,2013-02-26 19:26:00,
2013-02-26 12:32:00,42.0,29.1,30.18,NW,307,19.0,24.0,60,0.00,,,0.00,Wunderground v.1.15,2013-02-26 19:32:00,
2013-02-26 12:38:00,41.5,29.8,30.18,NW,308,19.0,35.0,63,0.00,,,0.00,Wunderground v.1.15,2013-02-26 19:38:00,
2013-02-26 12:44:00,40.7,29.5,30.18,NNW,328,20.0,35.0,64,0.00,,,0.00,Wunderground v.1.15,2013-02-26 19:44:00,
2013-02-26 12:50:00,40.2,30.1,30.18,NW,311,20.0,20.0,67,0.00,,,0.00,Wunderground v.1.15,2013-02-26 19:50:00,
2013-02-26 12:56:00,39.8,29.7,30.18,NNW,345,21.0,35.0,67,0.00,,,0.00,Wunderground v.1.15,2013-02-26 19:56:00,
2013-02-26 13:02:00,39.8,30.1,30.19,NNW,338,21.0,35.0,68,0.00,,,0.00,Wunderground v.1.15,2013-02-26 20:02:00,
2013-02-26 13:08:00,39.5,30.2,30.19,NNW,331,21.0,35.0,69,0.00,,,0.00,Wunderground v.1.15,2013-02-26 20:08:00,
2013-02-26 13:14:00,39.5,30.2,30.19,NW,308,22.0,35.0,69,0.00,,,0.00,Wunderground v.1.15,2013-02-26 20:14:00,
2013-02-26 13:20:00,39.6,30.3,30.19,NW,314,22.0,35.0,69,0.00,,,0.00,Wunderground v.1.15,2013-02-26 20:20:00,
2013-02-26 13:26:00,40.1,30.4,30.19,NNW,341,23.0,35.0,68,0.00,,,0.00,Wunderground v.1.15,2013-02-26 20:26:00,
2013-02-26 13:32:00,40.4,30.7,30.19,NW,321,23.0,23.0,68,0.00,,,0.00,Wunderground v.1.15,2013-02-26 20:32:00,
2013-02-26 13:38:00,40.3,30.6,30.19,WNW,303,23.0,35.0,68,0.00,,,0.00,Wunderground v.1.15,2013-02-26 20:38:00,
2013-02-26 13:44:00,40.4,31.0,30.19,NW,325,23.0,35.0,69,0.00,,,0.00,Wunderground v.1.15,2013-02-26 20:44:00,
2013-02-26 13:50:00,40.0,30.6,30.20,NNW,332,22.0,35.0,69,0.00,,,0.00,Wunderground v.1.15,2013-02-26 20:50:00,
2013-02-26 13:56:00,40.0,30.6,30.20,NNW,327,22.0,35.0,69,0.00,,,0.00,Wunderground v.1.15,2013-02-26 20:56:00,
2013-02-26 14:02:00,39.5,30.5,30.20,WNW,295,23.0,35.0,70,0.00,,,0.00,Wunderground v.1.15,2013-02-26 21:02:00,
2013-02-26 14:08:00,38.9,30.3,30.21,NW,315,23.0,35.0,71,0.00,,,0.00,Wunderground v.1.15,2013-02-26 21:08:00,
2013-02-26 14:14:00,38.3,30.1,30.22,NW,324,23.0,35.0,72,0.00,,,0.00,Wunderground v.1.15,2013-02-26 21:14:00,
2013-02-26 14:20:00,38.0,30.1,30.22,NW,311,21.0,35.0,73,0.00,,,0.00,Wunderground v.1.15,2013-02-26 21:20:00,
2013-02-26 14:26:00,37.4,30.2,30.22,NW,323,20.0,35.0,75,0.00,,,0.00,Wunderground v.1.15,2013-02-26 21:26:00,
2013-02-26 14:32:00,37.2,30.3,30.23,WNW,298,21.0,35.0,76,0.00,,,0.00,Wunderground v.1.15,2013-02-26 21:32:00,
2013-02-26 14:38:00,36.9,30.0,30.23,NW,325,21.0,35.0,76,0.00,,,0.00,Wunderground v.1.15,2013-02-26 21:38:00,
2013-02-26 14:44:00,36.4,29.9,30.23,NW,320,22.0,35.0,77,0.00,,,0.00,Wunderground v.1.15,2013-02-26 21:44:00,
2013-02-26 14:50:00,36.4,29.9,30.24,WNW,295,21.0,21.0,77,0.00,,,0.00,Wunderground v.1.15,2013-02-26 21:50:00,
2013-02-26 14:56:00,36.1,29.9,30.24,NNW,329,22.0,35.0,78,0.00,,,0.00,Wunderground v.1.15,2013-02-26 21:56:00,
2013-02-26 15:02:00,35.9,30.0,30.24,NW,318,21.0,35.0,79,0.00,,,0.00,Wunderground v.1.15,2013-02-26 22:02:00,
2013-02-26 15:08:00,35.8,30.2,30.25,NW,314,22.0,35.0,80,0.00,,,0.00,Wunderground v.1.15,2013-02-26 22:08:00,
2013-02-26 15:14:00,35.7,30.4,30.25,NW,317,22.0,35.0,81,0.00,,,0.00,Wunderground v.1.15,2013-02-26 22:14:00,
2013-02-26 15:20:00,35.6,30.6,30.25,NW,313,21.0,35.0,82,0.00,,,0.00,Wunderground v.1.15,2013-02-26 22:20:00,
2013-02-26 15:26:00,35.7,30.7,30.25,NW,314,22.0,35.0,82,0.00,,,0.00,Wunderground v.1.15,2013-02-26 22:26:00,
2013-02-26 15:32:00,35.9,30.9,30.26,WNW,303,21.0,35.0,82,0.00,,,0.00,Wunderground v.1.15,2013-02-26 22:32:00,
2013-02-26 15:38:00,35.9,30.9,30.26,NW,317,20.0,35.0,82,0.00,,,0.00,Wunderground v.1.15,2013-02-26 22:38:00,
2013-02-26 15:44:00,35.5,30.5,30.26,NW,316,21.0,35.0,82,0.00,,,0.00,Wunderground v.1.15,2013-02-26 22:44:00,
2013-02-26 15:50:00,35.2,30.9,30.27,NW,310,22.0,22.0,84,0.00,,,0.00,Wunderground v.1.15,2013-02-26 22:50:00,
2013-02-26 15:56:00,35.1,31.0,30.27,NW,326,20.0,35.0,85,0.00,,,0.00,Wunderground v.1.15,2013-02-26 22:56:00,
2013-02-26 16:02:00,34.8,31.0,30.27,WNW,302,19.0,21.0,86,0.00,,,0.00,Wunderground v.1.15,2013-02-26 23:02:00,
2013-02-26 16:08:00,34.6,31.1,30.28,NW,317,20.0,35.0,87,0.00,,,0.00,Wunderground v.1.15,2013-02-26 23:08:00,
2013-02-26 16:14:00,34.5,31.0,30.28,NW,310,19.0,35.0,87,0.00,,,0.00,Wunderground v.1.15,2013-02-26 23:14:00,
2013-02-26 16:20:00,34.6,31.1,30.28,NW,310,17.0,35.0,87,0.00,,,0.00,Wunderground v.1.15,2013-02-26 23:20:00,
2013-02-26 16:26:00,34.6,30.6,30.29,NW,321,19.0,35.0,85,0.00,,,0.00,Wunderground v.1.15,2013-02-26 23:26:00,
2013-02-26 16:32:00,34.2,30.4,30.29,NW,304,18.0,35.0,86,0.00,,,0.00,Wunderground v.1.15,2013-02-26 23:32:00,
2013-02-26 16:38:00,34.1,30.6,30.29,NW,326,17.0,35.0,87,0.00,,,0.00,Wunderground v.1.15,2013-02-26 23:38:00,
2013-02-26 16:44:00,34.2,30.4,30.30,NNW,333,16.0,35.0,86,0.00,,,0.00,Wunderground v.1.15,2013-02-26 23:44:00,
2013-02-26 16:50:00,34.3,30.5,30.30,NNW,333,15.0,35.0,86,0.00,,,0.00,Wunderground v.1.15,2013-02-26 23:50:00,
2013-02-26 16:56:00,34.3,30.3,30.30,North,349,15.0,35.0,85,0.00,,,0.00,Wunderground v.1.15,2013-02-26 23:56:00,
2013-02-26 17:02:00,34.2,30.2,30.31,NW,318,15.0,35.0,85,0.00,,,0.00,Wunderground v.1.15,2013-02-27 00:02:00,
2013-02-26 17:08:00,34.2,30.2,30.31,NNW,338,15.0,35.0,85,0.00,,,0.00,Wunderground v.1.15,2013-02-27 00:08:00,
2013-02-26 17:14:00,34.1,30.1,30.31,WNW,301,16.0,35.0,85,0.00,,,0.00,Wunderground v.1.15,2013-02-27 00:14:00,
2013-02-26 17:20:00,34.1,30.1,30.32,NW,317,17.0,17.0,85,0.00,,,0.00,Wunderground v.1.15,2013-02-27 00:20:00,
2013-02-26 17:26:00,34.0,30.3,30.32,NW,318,16.0,35.0,86,0.00,,,0.00,Wunderground v.1.15,2013-02-27 00:26:00,
2013-02-26 17:32:00,33.7,30.2,30.32,NNW,332,16.0,18.0,87,0.00,,,0.00,Wunderground v.1.15,2013-02-27 00:32:00,
2013-02-26 17:38:00,33.6,30.1,30.33,NNW,327,15.0,35.0,87,0.00,,,0.00,Wunderground v.1.15,2013-02-27 00:38:00,
2013-02-26 17:44:00,33.6,30.1,30.33,NW,324,14.0,35.0,87,0.00,,,0.00,Wunderground v.1.15,2013-02-27 00:44:00,
2013-02-26 17:50:00,33.7,30.2,30.33,NW,314,14.0,14.0,87,0.00,,,0.00,Wunderground v.1.15,2013-02-27 00:50:00,
2013-02-26 17:56:00,33.6,30.1,30.33,NW,324,14.0,35.0,87,0.00,,,0.00,Wunderground v.1.15,2013-02-27 00:56:00,
2013-02-26 18:02:00,33.5,30.3,30.33,NW,318,15.0,16.0,88,0.00,,,0.00,Wunderground v.1.15,2013-02-27 01:02:00,
2013-02-26 18:08:00,33.4,30.5,30.34,NNW,329,15.0,35.0,89,0.00,,,0.00,Wunderground v.1.15,2013-02-27 01:08:00,
2013-02-26 18:14:00,33.2,30.6,30.34,NW,314,14.0,35.0,90,0.00,,,0.00,Wunderground v.1.15,2013-02-27 01:14:00,
2013-02-26 18:20:00,33.2,30.6,30.34,NW,308,12.0,35.0,90,0.00,,,0.00,Wunderground v.1.15,2013-02-27 01:20:00,
2013-02-26 18:26:00,33.2,30.6,30.34,NW,316,12.0,35.0,90,0.00,,,0.00,Wunderground v.1.15,2013-02-27 01:26:00,
2013-02-26 18:32:00,33.3,30.7,30.35,NW,324,12.0,35.0,90,0.00,,,0.00,Wunderground v.1.15,2013-02-27 01:32:00,
2013-02-26 18:38:00,33.3,30.4,30.35,NW,311,12.0,35.0,89,0.00,,,0.00,Wunderground v.1.15,2013-02-27 01:38:00,
2013-02-26 18:44:00,33.5,30.3,30.35,NW,322,13.0,35.0,88,0.00,,,0.00,Wunderground v.1.15,2013-02-27 01:44:00,
2013-02-26 18:50:00,33.5,30.3,30.35,NW,308,13.0,13.0,88,0.00,,,0.00,Wunderground v.1.15,2013-02-27 01:50:00,
2013-02-26 18:56:00,33.5,30.0,30.35,NW,314,11.0,35.0,87,0.00,,,0.00,Wunderground v.1.15,2013-02-27 01:56:00,
2013-02-26 19:02:00,33.5,29.8,30.35,NW,313,10.0,35.0,86,0.00,,,0.00,Wunderground v.1.15,2013-02-27 02:02:00,
2013-02-26 19:08:00,33.7,30.0,30.35,NW,315,10.0,35.0,86,0.00,,,0.00,Wunderground v.1.15,2013-02-27 02:08:00,
2013-02-26 19:14:00,33.8,29.8,30.35,NW,319,11.0,12.0,85,0.00,,,0.00,Wunderground v.1.15,2013-02-27 02:14:00,
2013-02-26 19:20:00,33.8,29.5,30.36,WNW,299,11.0,35.0,84,0.00,,,0.00,Wunderground v.1.15,2013-02-27 02:20:00,
2013-02-26 19:26:00,33.7,29.4,30.36,NW,321,11.0,35.0,84,0.00,,,0.00,Wunderground v.1.15,2013-02-27 02:26:00,
2013-02-26 19:32:00,33.7,29.1,30.36,NNW,333,11.0,11.0,83,0.00,,,0.00,Wunderground v.1.15,2013-02-27 02:32:00,
2013-02-26 19:38:00,33.8,28.9,30.36,NW,312,10.0,35.0,82,0.00,,,0.00,Wunderground v.1.15,2013-02-27 02:38:00,
2013-02-26 19:44:00,33.9,28.7,30.36,NW,310,10.0,35.0,81,0.00,,,0.00,Wunderground v.1.15,2013-02-27 02:44:00,
2013-02-26 19:50:00,33.8,28.6,30.36,NW,326,10.0,10.0,81,0.00,,,0.00,Wunderground v.1.15,2013-02-27 02:50:00,
2013-02-26 19:56:00,33.6,28.4,30.37,NW,317,10.0,35.0,81,0.00,,,0.00,Wunderground v.1.15,2013-02-27 02:56:00,
2013-02-26 20:02:00,33.4,27.9,30.37,NNW,340,10.0,35.0,80,0.00,,,0.00,Wunderground v.1.15,2013-02-27 03:02:00,
2013-02-26 20:08:00,33.3,27.8,30.37,NW,318,10.0,35.0,80,0.00,,,0.00,Wunderground v.1.15,2013-02-27 03:08:00,
2013-02-26 20:14:00,33.1,27.3,30.38,NNW,345,10.0,35.0,79,0.00,,,0.00,Wunderground v.1.15,2013-02-27 03:14:00,
2013-02-26 20:20:00,32.8,27.0,30.38,NNW,335,10.0,35.0,79,0.00,,,0.00,Wunderground v.1.15,2013-02-27 03:20:00,
2013-02-26 20:26:00,32.5,26.7,30.38,NNW,332,10.0,35.0,79,0.00,,,0.00,Wunderground v.1.15,2013-02-27 03:26:00,
2013-02-26 20:32:00,32.2,26.4,30.39,NNW,334,9.0,35.0,79,0.00,,,0.00,Wunderground v.1.15,2013-02-27 03:32:00,
2013-02-26 20:38:00,31.9,26.4,30.39,NNW,337,8.0,35.0,80,0.00,,,0.00,Wunderground v.1.15,2013-02-27 03:38:00,
2013-02-26 20:44:00,31.7,26.2,30.39,NW,325,8.0,35.0,80,0.00,,,0.00,Wunderground v.1.15,2013-02-27 03:44:00,
2013-02-26 20:50:00,31.8,26.0,30.39,NNW,335,9.0,35.0,79,0.00,,,0.00,Wunderground v.1.15,2013-02-27 03:50:00,
2013-02-26 20:56:00,32.1,26.0,30.39,North,4,10.0,35.0,78,0.00,,,0.00,Wunderground v.1.15,2013-02-27 03:56:00,
2013-02-26 21:02:00,32.0,25.6,30.40,NNW,347,11.0,35.0,77,0.00,,,0.00,Wunderground v.1.15,2013-02-27 04:02:00,
2013-02-26 21:08:00,31.7,25.3,30.40,North,354,11.0,35.0,77,0.00,,,0.00,Wunderground v.1.15,2013-02-27 04:08:00,
2013-02-26 21:14:00,31.6,25.2,30.40,North,359,11.0,35.0,77,0.00,,,0.00,Wunderground v.1.15,2013-02-27 04:14:00,
2013-02-26 21:20:00,31.3,25.2,30.40,NNW,340,10.0,10.0,78,0.00,,,0.00,Wunderground v.1.15,2013-02-27 04:20:00,
2013-02-26 21:26:00,31.2,25.1,30.40,NNW,335,10.0,35.0,78,0.00,,,0.00,Wunderground v.1.15,2013-02-27 04:26:00,
2013-02-26 21:32:00,31.0,24.9,30.41,NNW,347,11.0,35.0,78,0.00,,,0.00,Wunderground v.1.15,2013-02-27 04:32:00,
2013-02-26 21:38:00,30.8,24.7,30.41,NNW,331,11.0,35.0,78,0.00,,,0.00,Wunderground v.1.15,2013-02-27 04:38:00,
2013-02-26 21:44:00,30.6,24.6,30.41,NNW,347,12.0,35.0,78,0.00,,,0.00,Wunderground v.1.15,2013-02-27 04:44:00,
2013-02-26 21:50:00,30.4,24.4,30.41,NNW,329,11.0,11.0,78,0.00,,,0.00,Wunderground v.1.15,2013-02-27 04:50:00,
2013-02-26 21:56:00,30.2,24.5,30.41,NNW,342,11.0,35.0,79,0.00,,,0.00,Wunderground v.1.15,2013-02-27 04:56:00,
2013-02-26 22:00:00,30.1,24.1,30.42,North,359,11.0,11.0,78,0.00,,,0.00,Wunderground v.1.15,2013-02-27 05:00:00,
2013-02-26 22:02:00,30.1,24.1,30.41,North,349,11.0,12.0,78,0.00,,,0.00,Wunderground v.1.15,2013-02-27 05:02:00,
2013-02-26 22:04:00,30.0,24.0,30.41,NNW,338,12.0,35.0,78,0.00,,,0.00,Wunderground v.1.15,2013-02-27 05:04:00,
2013-02-26 22:08:00,29.9,24.2,30.42,NNW,347,12.0,35.0,79,0.00,,,0.00,Wunderground v.1.15,2013-02-27 05:08:00,
2013-02-26 22:14:00,29.6,23.9,30.42,NNW,335,12.0,35.0,79,0.00,,,0.00,Wunderground v.1.15,2013-02-27 05:14:00,
2013-02-26 22:20:00,29.5,23.5,30.42,NNW,328,12.0,12.0,78,0.00,,,0.00,Wunderground v.1.15,2013-02-27 05:20:00,
2013-02-26 22:26:00,29.4,23.4,30.42,NNW,341,12.0,35.0,78,0.00,,,0.00,Wunderground v.1.15,2013-02-27 05:26:00,
2013-02-26 22:32:00,29.3,23.3,30.42,North,349,13.0,35.0,78,0.00,,,0.00,Wunderground v.1.15,2013-02-27 05:32:00,
2013-02-26 22:38:00,29.1,23.1,30.42,NNW,342,13.0,35.0,78,0.00,,,0.00,Wunderground v.1.15,2013-02-27 05:38:00,
2013-02-26 22:44:00,28.9,23.2,30.43,NNW,334,11.0,35.0,79,0.00,,,0.00,Wunderground v.1.15,2013-02-27 05:44:00,
2013-02-26 22:50:00,28.9,23.2,30.43,NNW,343,11.0,11.0,79,0.00,,,0.00,Wunderground v.1.15,2013-02-27 05:50:00,
2013-02-26 22:56:00,28.8,23.1,30.43,NNW,337,10.0,35.0,79,0.00,,,0.00,Wunderground v.1.15,2013-02-27 05:56:00,
2013-02-26 23:02:00,28.8,23.1,30.43,NNW,339,10.0,35.0,79,0.00,,,0.00,Wunderground v.1.15,2013-02-27 06:02:00,
2013-02-26 23:08:00,28.6,23.2,30.43,NNW,334,11.0,35.0,80,0.00,,,0.00,Wunderground v.1.15,2013-02-27 06:08:00,
2013-02-26 23:14:00,28.4,23.3,30.43,NNW,347,9.0,35.0,81,0.00,,,0.00,Wunderground v.1.15,2013-02-27 06:14:00,
2013-02-26 23:20:00,28.3,23.2,30.43,NNW,339,9.0,35.0,81,0.00,,,0.00,Wunderground v.1.15,2013-02-27 06:20:00,
2013-02-26 23:26:00,28.5,23.4,30.43,NNW,335,9.0,35.0,81,0.00,,,0.00,Wunderground v.1.15,2013-02-27 06:26:00,
2013-02-26 23:32:00,28.7,23.3,30.43,NNW,332,9.0,10.0,80,0.00,,,0.00,Wunderground v.1.15,2013-02-27 06:32:00,
2013-02-26 23:38:00,28.9,23.5,30.43,NNW,335,8.0,35.0,80,0.00,,,0.00,Wunderground v.1.15,2013-02-27 06:38:00,
2013-02-26 23:44:00,29.2,23.8,30.43,North,354,9.0,35.0,80,0.00,,,0.00,Wunderground v.1.15,2013-02-27 06:44:00,
2013-02-26 23:50:00,29.3,23.9,30.43,NNW,337,9.0,35.0,80,0.00,,,0.00,Wunderground v.1.15,2013-02-27 06:50:00,
2013-02-26 23:56:00,29.5,23.8,30.44,North,354,8.0,35.0,79,0.00,,,0.00,Wunderground v.1.15,2013-02-27 06:56:00,